STARLINK-1131, 45047

Orbit data source: Space-Track

STARLINK-1131, 45047 is a payload satellite owned by SpaceX/Seattle (US) in LEO that was launched on Wed, 29 Jan 2020 UTC via an FALCON 9 launch vehicle from the Air Force Eastern Test Range (AFETR). Payload-class satellites include a variety of spacecraft equipped with specific instruments for various scientific and technological missions. These include communications satellites like Starlink; space stations such as the ISS; scientific satellites like the Hubble; Earth observation satellites from companies like Planet Labs, Umbra, and HawkEye 360; GPS; miniature CubeSats for education and research; and military/defense satellites.

Loading next visibility...
Identifier
45047, 2020-006D
Orbit
LEO
Country
Flag of USUS
Related business
Manufacturer
SpaceX/Seattle
Mission
Partially operational Commercial Communications
Bus & Motor
STARLINK, Unknown motor
Mass
260 kg wet, ~248 kg dry
Launch date (UTC)
2020-01-29 (7 years ago)
Launch vehicle
FALCON 9
Launch site
Air Force Eastern Test Range (AFETR)
Object type
Payload
Rocket body
Debris
Shape & HBR
Box + 1 Pan, 10.1 m
Radar Cross Section
13.562 m², Large (>1 m²)

Expand to show TLE details & history
Last TLE update: 1 day ago

TLE from 1 day ago
0 STARLINK-1131
1 45047U 20006D   26235.09767248  .00084924  00000-0  86021-3 0  9996
2 45047  53.1498 205.9182 0004991  61.5018 298.6499 15.64555888362332
Epoch: 2026-08-23T02:20Z
TLE epoch observation values (Epoch: 2026-08-23T02:20:38.902Z)
Latitude
-0.00007°
Longitude
-160.64256°
Altitude
373.814 km
Speed
7.688 km/s
True Right ascension
13h 43m 40s
True Declination
0° 00' 00"
Sunlit
Object was in daylight at epoch
Visualization orbit readout
Latitude
Unknown
Longitude
Unknown
Altitude
Unknown
Speed
Unknown
Apparent Right ascension
Unknown
Apparent Declination
Unknown
Sunlit
N/A
Visualization observer readout
Local Sidereal Time
01:48:28
Azimuth
Unknown
Elevation
Unknown
Doppler factor
Unknown
Orbital elements
Apogee altitude
378.149 km
Perigee altitude
371.408 km
Semi-major axis
6,752.915 km
Eccentricity
0.0005
Inclination
53.1498°
RAAN
205.9182°
Arg. of periapsis
61.5018°
True anomaly
298.59969°
Mean anomaly
298.6499°
Eccentric anomaly
298.6248°
Mean motion
3.91117 °/min
Orbital period
92.04 mins
BSTAR
0.00086021
Loading maneuver chart data...
Computing Atmospheric mass density...

Documentation

Showing up to 5 results
|